Location: Mountain Grove
(34.0887°N, 86.6172°W)
Time: 14:58:59
(UTC+00:00)

H-2A R/B - Pass Details

Date: 14 July 2020
Orbit: 732 x 838 km, 98.2° (Epoch: 12 August)

Event Time Altitude Azimuth Distance (km) Brightness Sun altitude
Rises 01:37:50 0° 181° (S) 3,370 5.0 -7.8°
Reaches altitude 10° 01:40:17 10° 187° (S) 2,441 4.4 -8.2°
Maximum altitude 01:45:30 47° 261° (W) 1,097 3.2 -9.1°
Drops below altitude 10° 01:50:42 10° 334° (NNW) 2,438 5.6 -10.0°
Sets 01:53:09 0° 341° (NNW) 3,364 6.3 -10.4°
